AC2EV Weather Reports


time (UTC)temp
C
wind
direction
speed
KPH
gust
KPH
rain 1hr
cm
rain 24hr
cm
rain mn
cm
humidity
%
barometer
mb
20260906212804 21 46 0.0 0.0 0.00 0.28 0.28 68 1018.6
20260906212306 21 46 0.0 0.0 0.00 0.28 0.28 68 1018.6
20260906211803 21 46 0.0 0.0 0.00 0.28 0.28 68 1018.6
20260906211302 21 46 0.0 0.0 0.00 0.28 0.28 68 1018.7
20260906210803 21 46 0.0 0.0 0.00 0.28 0.28 67 1018.7
20260906210303 21 46 0.0 0.0 0.00 0.28 0.28 69 1018.7
20260906205803 21 46 0.0 0.0 0.00 0.28 0.28 68 1018.8
20260906205306 21 46 0.0 0.0 0.00 0.28 0.28 67 1018.7
20260906204803 21 46 0.0 0.0 0.00 0.28 0.28 69 1018.7
20260906204302 21 46 0.0 0.0 0.00 0.28 0.28 69 1018.7
20260906203803 21 46 0.0 0.0 0.00 0.28 0.28 69 1018.7
20260906203302 20 46 0.0 1.6 0.00 0.28 0.28 70 1018.6
20260906202803 20 46 0.0 1.6 0.00 0.28 0.28 70 1018.6
20260906202306 20 46 0.0 1.6 0.00 0.28 0.28 70 1018.6
20260906201803 20 46 0.0 1.6 0.00 0.28 0.28 70 1018.7
20260906201302 20 45 0.0 0.0 0.00 0.28 0.28 70 1018.6
20260906200803 20 45 0.0 0.0 0.00 0.28 0.28 70 1018.6
20260906200302 20 45 0.0 0.0 0.00 0.28 0.28 70 1018.7
20260906195803 20 45 0.0 0.0 0.00 0.28 0.28 71 1018.7
20260906195306 20 45 0.0 0.0 0.00 0.28 0.28 71 1018.7
20260906194803 20 45 0.0 0.0 0.00 0.28 0.28 73 1018.6
20260906194302 20 45 0.0 0.0 0.00 0.28 0.28 73 1018.7
20260906193803 20 45 0.0 0.0 0.00 0.28 0.28 72 1018.8
20260906193302 20 45 0.0 0.0 0.00 0.28 0.28 72 1018.9
20260906192803 20 46 0.0 0.0 0.00 0.28 0.28 73 1018.8
20260906192302 20 45 0.0 1.6 0.00 0.28 0.28 71 1018.8
20260906191803 20 45 0.0 1.6 0.00 0.28 0.28 72 1018.9
20260906191302 20 45 0.0 1.6 0.00 0.28 0.28 71 1018.9
20260906190803 20 45 0.0 1.6 0.00 0.28 0.28 71 1018.9
20260906190302 20 45 0.0 1.6 0.00 0.28 0.28 71 1018.8
20260906185803 20 45 0.0 1.6 0.00 0.28 0.28 71 1018.8
20260906185305 20 45 0.0 1.6 0.00 0.28 0.28 72 1018.8
20260906184803 20 45 0.0 1.6 0.00 0.28 0.28 73 1018.8
20260906184302 20 47 0.0 1.6 0.00 0.28 0.28 73 1018.9
20260906183801 20 46 0.0 1.6 0.00 0.28 0.28 72 1018.9
20260906183255 20 47 0.0 1.6 0.00 0.28 0.28 74 1018.9
20260906182755 19 47 0.0 6.4 0.00 0.28 0.28 75 1018.8
20260906182257 20 47 0.0 6.4 0.00 0.28 0.28 74 1018.9
20260906181755 20 46 0.0 3.2 0.00 0.28 0.28 73 1019.0
20260906181458 20 46 0.0 1.6 0.00 0.28 0.28 72 1018.9
20260906180753 20 46 0.0 1.6 0.00 0.28 0.28 72 1018.9
20260906180253 20 48 0.0 6.4 0.00 0.28 0.28 73 1018.8
20260906175752 20 48 0.0 6.4 0.00 0.28 0.28 74 1018.8
20260906175252 20 45 0.0 3.2 0.00 0.28 0.28 73 1018.9
20260906174750 19 45 0.0 3.2 0.00 0.28 0.28 75 1018.9
20260906174247 19 45 0.0 1.6 0.00 0.28 0.28 75 1018.9
20260906173747 19 44 0.0 1.6 0.00 0.28 0.28 74 1018.9
20260906173247 20 46 0.0 0.0 0.00 0.28 0.28 74 1019.0
20260906172745 20 46 0.0 1.6 0.00 0.28 0.28 75 1019.0
20260906172245 20 46 0.0 1.6 0.00 0.28 0.28 79 1019.0
20260906171746 19 46 0.0 0.0 0.00 0.28 0.28 76 1019.1
20260906171245 19 46 0.0 1.6 0.00 0.28 0.28 76 1019.1
20260906170744 19 46 0.0 1.6 0.00 0.28 0.28 77 1019.0
20260906170243 19 46 0.0 1.6 0.00 0.28 0.28 78 1019.0
20260906165742 19 46 0.0 1.6 0.00 0.28 0.28 77 1019.0
20260906165241 20 46 0.0 4.8 0.00 0.28 0.28 76 1018.9
20260906164741 20 45 0.0 4.8 0.00 0.28 0.28 75 1018.9
20260906164241 20 42 0.0 6.4 0.00 0.28 0.28 77 1018.8
20260906163742 20 42 0.0 6.4 0.00 0.28 0.28 75 1018.9
20260906163241 20 49 0.0 4.8 0.00 0.28 0.28 75 1018.8
20260906162741 19 50 0.0 4.8 0.00 0.28 0.28 79 1018.8
20260906162239 19 49 0.0 6.4 0.00 0.28 0.28 78 1018.9
20260906161737 19 49 0.0 6.4 0.00 0.28 0.28 77 1018.9
20260906161239 20 49 0.0 0.0 0.00 0.28 0.28 79 1018.9
20260906160737 19 49 0.0 1.6 0.00 0.28 0.28 79 1018.8
20260906160238 20 49 0.0 1.6 0.00 0.28 0.28 78 1018.9
20260906155737 20 51 0.0 0.0 0.00 0.28 0.28 78 1018.9
20260906155238 20 51 0.0 1.6 0.00 0.28 0.28 76 1018.9
20260906154737 20 51 0.0 1.6 0.00 0.28 0.28 74 1018.7
20260906154239 20 50 0.0 0.0 0.00 0.28 0.28 74 1018.8
20260906153731 20 51 0.0 0.0 0.00 0.28 0.28 77 1018.7
20260906153231 20 51 0.0 0.0 0.00 0.28 0.28 77 1018.7
20260906152732 19 50 0.0 0.0 0.28 0.28 0.28 77 1018.7
20260906152232 19 10 0.0 3.2 0.28 0.28 0.28 78 1018.7
20260906151732 19 51 0.0 3.2 0.28 0.28 0.28 78 1018.6
20260906151230 19 51 0.0 4.8 0.28 0.28 0.28 76 1018.6
20260906150731 20 49 0.0 4.8 0.28 0.28 0.28 77 1018.5
20260906150231 20 49 0.0 8.0 0.28 0.28 0.28 77 1018.5
20260906145729 20 50 0.0 8.0 0.28 0.28 0.28 78 1018.6
20260906145227 20 36 0.0 3.2 0.28 0.28 0.28 79 1018.6
20260906144727 19 34 0.0 3.2 0.28 0.28 0.28 80 1018.5
20260906144227 19 34 0.0 3.2 0.28 0.28 0.28 80 1018.5
20260906143725 19 34 0.0 4.8 0.28 0.28 0.28 80 1018.6
20260906143223 19 33 0.0 9.7 0.28 0.28 0.28 79 1018.5
20260906142721 19 26 0.0 9.7 0.00 0.00 0.00 79 1018.5
20260906142225 19 23 0.0 3.2 0.00 0.00 0.00 78 1018.5
20260906141715 19 23 0.0 6.4 0.00 0.00 0.00 80 1018.4
20260906141209 20 23 0.0 8.0 0.00 0.00 0.00 78 1018.4
20260906140709 20 13 0.0 8.0 0.00 0.00 0.00 78 1018.3
20260906140209 19 13 0.0 3.2 0.00 0.00 0.00 82 1018.2
20260906135709 19 0 0.0 1.6 0.00 0.00 0.00 81 1018.1
20260906135207 19 0 0.0 3.2 0.00 0.00 0.00 84 1017.9
20260906134707 18 0 0.0 3.2 0.00 0.00 0.00 83 1018.0
20260906134207 18 30 0.0 3.2 0.00 0.00 0.00 84 1018.0
20260906133703 18 34 0.0 4.8 0.00 0.00 0.00 84 1018.1
20260906133204 18 32 0.0 4.8 0.00 0.00 0.00 84 1018.0
20260906132703 18 31 0.0 1.6 0.00 0.00 0.00 84 1018.0
20260906132203 18 350 0.0 1.6 0.00 0.00 0.00 85 1017.9
20260906131703 18 351 0.0 1.6 0.00 0.00 0.00 84 1017.9
20260906131202 18 351 0.0 1.6 0.00 0.00 0.00 85 1017.9
20260906130703 18 351 0.0 9.7 0.00 0.00 0.00 86 1017.9
20260906130202 18 351 0.0 9.7 0.00 0.00 0.00 87 1017.9
20260906125703 18 327 0.0 1.6 0.00 0.00 0.00 87 1017.8
20260906125202 18 326 0.0 1.6 0.00 0.00 0.00 88 1017.7
20260906124703 18 326 0.0 0.0 0.00 0.00 0.00 89 1017.7
20260906124202 18 325 0.0 0.0 0.00 0.00 0.00 90 1017.6
20260906123702 18 325 0.0 1.6 0.00 0.00 0.00 90 1017.6
20260906123203 18 325 0.0 1.6 0.00 0.00 0.00 90 1017.6
20260906122702 18 325 0.0 4.8 0.00 0.00 0.00 90 1017.6
20260906122203 18 28 0.0 4.8 0.00 0.00 0.00 90 1017.5
20260906121702 17 24 0.0 6.4 0.00 0.00 0.00 88 1017.5
20260906121203 17 30 0.0 6.4 0.00 0.00 0.00 88 1017.5
20260906120702 17 302 0.0 1.6 0.00 0.00 0.00 87 1017.4
20260906120203 17 302 0.0 1.6 0.00 0.00 0.00 87 1017.3
20260906115702 17 300 0.0 0.0 0.00 0.00 0.00 87 1017.3
20260906115202 16 0 0.0 0.0 0.00 0.00 0.00 88 1017.1
20260906114702 16 0 0.0 0.0 0.00 0.00 0.00 89 1017.0
20260906114202 15 0 0.0 0.0 0.00 0.00 0.00 89 1016.9
20260906113702 15 0 0.0 0.0 0.00 0.00 0.00 89 1016.9
20260906113202 15 300 0.0 0.0 0.00 0.00 0.00 89 1016.9
20260906112702 15 301 0.0 0.0 0.00 0.00 0.00 89 1016.9
20260906112203 15 301 0.0 0.0 0.00 0.00 0.00 90 1016.8
20260906111702 15 301 0.0 0.0 0.00 0.00 0.00 90 1016.7
20260906111202 15 301 0.0 0.0 0.00 0.00 0.00 90 1016.7
20260906110703 15 293 0.0 0.0 0.00 0.00 0.00 90 1016.7
20260906110202 15 297 0.0 0.0 0.00 0.00 0.00 90 1016.6
20260906105202 15 300 0.0 0.0 0.00 0.00 0.00 90 1016.5
20260906104703 15 300 0.0 0.0 0.00 0.00 0.00 90 1016.4
20260906104203 15 300 0.0 0.0 0.00 0.00 0.00 90 1016.4
20260906103703 15 300 0.0 0.0 0.00 0.00 0.00 90 1016.4
20260906103202 15 301 0.0 0.0 0.00 0.00 0.00 90 1016.3
20260906102703 15 301 0.0 0.0 0.00 0.00 0.00 90 1016.2
20260906102202 15 301 0.0 0.0 0.00 0.00 0.00 90 1016.2
20260906101702 15 301 0.0 0.0 0.00 0.00 0.00 90 1016.1
20260906101202 15 301 0.0 0.0 0.00 0.00 0.00 90 1016.1
20260906100702 15 301 0.0 0.0 0.00 0.00 0.00 90 1016.0
20260906100203 15 301 0.0 0.0 0.00 0.00 0.00 90 1016.0
20260906095702 15 301 0.0 0.0 0.00 0.00 0.00 90 1015.9
20260906095203 15 301 0.0 0.0 0.00 0.00 0.00 90 1015.9
20260906094702 15 301 0.0 0.0 0.00 0.00 0.00 90 1015.8
20260906094203 15 301 0.0 0.0 0.00 0.00 0.00 90 1015.8
20260906093703 15 301 0.0 0.0 0.00 0.00 0.00 90 1015.7
20260906093202 15 301 0.0 0.0 0.00 0.00 0.00 90 1015.7
20260906092703 15 301 0.0 0.0 0.00 0.00 0.00 90 1015.7
20260906092202 15 301 0.0 0.0 0.00 0.00 0.00 90 1015.7
20260906091704 15 301 0.0 0.0 0.00 0.00 0.00 90 1015.5
20260906091203 15 301 0.0 0.0 0.00 0.00 0.00 90 1015.6
20260906090703 15 301 0.0 0.0 0.00 0.00 0.00 90 1015.5
20260906090202 15 301 0.0 0.0 0.00 0.00 0.00 90 1015.5
20260906085704 15 301 0.0 0.0 0.00 0.00 0.00 90 1015.4
20260906085202 15 301 0.0 0.0 0.00 0.00 0.00 90 1015.3
20260906084702 15 301 0.0 0.0 0.00 0.00 0.00 90 1015.2
20260906084203 15 301 0.0 0.0 0.00 0.00 0.00 90 1015.1
20260906083703 15 296 0.0 0.0 0.00 0.00 0.00 90 1015.1
20260906083202 15 297 0.0 0.0 0.00 0.00 0.00 90 1015.0
20260906082702 15 299 0.0 0.0 0.00 0.00 0.00 91 1015.0
20260906082202 15 300 0.0 0.0 0.00 0.00 0.00 91 1015.0
20260906081702 15 300 0.0 0.0 0.00 0.00 0.00 91 1015.0
20260906081203 15 301 0.0 0.0 0.00 0.00 0.00 91 1015.0
20260906080703 15 301 0.0 0.0 0.00 0.00 0.00 90 1015.0
20260906080202 15 301 0.0 0.0 0.00 0.00 0.00 90 1015.0
20260906075702 15 301 0.0 0.0 0.00 0.00 0.00 90 1015.0
20260906075202 15 301 0.0 0.0 0.00 0.00 0.00 90 1015.0
20260906074703 16 0 0.0 0.0 0.00 0.00 0.00 91 1015.0
20260906074202 16 0 0.0 0.0 0.00 0.00 0.00 91 1014.9
20260906073703 16 0 0.0 0.0 0.00 0.00 0.00 91 1014.9
20260906073202 16 0 0.0 0.0 0.00 0.00 0.00 90 1014.9
20260906072703 16 0 0.0 0.0 0.00 0.00 0.00 90 1014.7
20260906072202 16 0 0.0 0.0 0.00 0.00 0.00 90 1014.7
20260906071702 16 0 0.0 0.0 0.00 0.00 0.00 91 1014.8
20260906071202 16 0 0.0 0.0 0.00 0.00 0.00 91 1014.8
20260906070703 16 0 0.0 0.0 0.00 0.00 0.00 90 1014.9
20260906070202 16 0 0.0 0.0 0.00 0.00 0.00 90 1014.8
20260906065702 16 0 0.0 0.0 0.00 0.00 0.00 90 1014.8
20260906065202 16 0 0.0 0.0 0.00 0.00 0.00 90 1014.9
20260906064703 16 0 0.0 0.0 0.00 0.00 0.00 90 1014.8
20260906064202 16 0 0.0 0.0 0.00 0.00 0.00 90 1014.9
20260906063702 16 0 0.0 0.0 0.00 0.00 0.00 90 1014.9
20260906063202 16 0 0.0 0.0 0.00 0.00 0.00 91 1015.0
20260906062703 16 0 0.0 0.0 0.00 0.00 0.00 91 1014.9
20260906062202 16 0 0.0 0.0 0.00 0.00 0.00 91 1014.9
20260906061703 16 0 0.0 0.0 0.00 0.00 0.00 91 1014.8
20260906061202 16 0 0.0 0.0 0.00 0.00 0.00 90 1015.0
20260906060703 16 0 0.0 0.0 0.00 0.00 0.00 90 1015.0
20260906060202 16 0 0.0 0.0 0.00 0.00 0.00 90 1014.9
20260906055703 16 0 0.0 0.0 0.00 0.00 0.00 90 1014.9
20260906055202 17 0 0.0 0.0 0.00 0.00 0.00 91 1015.0
20260906054706 17 0 0.0 0.0 0.00 0.00 0.00 91 1014.9
20260906054203 17 0 0.0 0.0 0.00 0.00 0.00 90 1014.9
20260906053703 17 0 0.0 0.0 0.00 0.00 0.00 90 1014.9
20260906053203 17 0 0.0 0.0 0.00 0.00 0.00 90 1014.9
20260906052703 17 0 0.0 0.0 0.00 0.00 0.00 90 1014.9
20260906052203 17 0 0.0 0.0 0.00 0.00 0.00 90 1014.9
20260906051702 17 0 0.0 0.0 0.00 0.00 0.00 90 1014.9
20260906051203 17 0 0.0 0.0 0.00 0.00 0.00 90 1014.9
20260906050702 17 0 0.0 0.0 0.00 0.00 0.00 90 1014.9
20260906050203 17 0 0.0 0.0 0.00 0.00 0.00 90 1014.9
20260906045702 17 0 0.0 0.0 0.00 0.00 0.00 90 1014.9
20260906045157 17 0 0.0 0.0 0.00 0.00 0.00 90 1014.9
20260906044652 17 0 0.0 0.0 0.00 0.00 0.00 90 1014.9
20260906044145 17 0 0.0 0.0 0.00 0.00 0.00 90 1014.8
20260906043639 17 0 0.0 0.0 0.00 0.00 0.00 90 1014.8
20260906043136 17 0 0.0 0.0 0.00 0.00 0.00 90 1014.7
20260906042635 17 0 0.0 0.0 0.00 0.00 0.00 90 1014.7
20260906042134 17 0 0.0 0.0 0.00 0.00 0.00 90 1014.7
20260906041631 17 0 0.0 0.0 0.00 0.00 0.00 90 1014.7
20260906041131 17 0 0.0 0.0 0.00 0.00 0.00 90 1014.6
20260906040631 17 0 0.0 0.0 0.00 0.00 0.00 90 1014.6
20260906040144 17 0 0.0 0.0 0.00 0.00 0.00 90 1014.6
20260906035630 17 0 0.0 0.0 0.00 0.00 0.00 90 1014.6
20260906035130 17 0 0.0 0.0 0.00 0.00 0.00 90 1014.6
20260906034631 17 0 0.0 0.0 0.00 0.00 0.00 90 1014.7
20260906034131 17 0 0.0 0.0 0.00 0.00 0.00 90 1014.6
20260906033631 17 0 0.0 0.0 0.00 0.00 0.00 90 1014.5
20260906033131 17 0 0.0 0.0 0.00 0.00 0.00 90 1014.5
20260906032630 17 0 0.0 0.0 0.00 0.00 0.00 90 1014.5
20260906032131 17 0 0.0 0.0 0.00 0.00 0.00 90 1014.5
20260906031631 17 0 0.0 0.0 0.00 0.00 0.00 90 1014.5
20260906031130 17 0 0.0 0.0 0.00 0.00 0.00 90 1014.5
20260906030631 17 0 0.0 0.0 0.00 0.00 0.00 90 1014.5
20260906030130 17 0 0.0 0.0 0.00 0.00 0.00 90 1014.4
20260906025630 17 0 0.0 0.0 0.00 0.00 0.00 90 1014.4
20260906025130 17 0 0.0 0.0 0.00 0.00 0.00 90 1014.4
20260906024630 17 0 0.0 0.0 0.00 0.00 0.00 90 1014.4
20260906024130 17 0 0.0 0.0 0.00 0.00 0.00 90 1014.4
20260906023630 17 0 0.0 0.0 0.00 0.00 0.00 90 1014.4
20260906023129 17 0 0.0 0.0 0.00 0.00 0.00 89 1014.4
20260906022630 18 0 0.0 0.0 0.00 0.00 0.00 89 1014.3
20260906022131 18 0 0.0 0.0 0.00 0.00 0.00 89 1014.3
20260906021631 18 0 0.0 0.0 0.00 0.00 0.00 89 1014.2
20260906021130 18 0 0.0 0.0 0.00 0.00 0.00 89 1014.2
20260906020631 18 0 0.0 0.0 0.00 0.00 0.00 89 1014.2
20260906020130 18 0 0.0 0.0 0.00 0.00 0.00 88 1014.2
20260906015630 18 0 0.0 0.0 0.00 0.00 0.00 88 1014.2
20260906015130 18 0 0.0 0.0 0.00 0.00 0.00 88 1014.2
20260906014630 18 0 0.0 0.0 0.00 0.00 0.00 88 1014.2
20260906014130 18 0 0.0 0.0 0.00 0.00 0.00 87 1014.1
20260906013630 19 0 0.0 0.0 0.00 0.00 0.00 87 1014.1
20260906013131 19 0 0.0 0.0 0.00 0.00 0.00 87 1014.0
20260906012630 19 0 0.0 0.0 0.00 0.00 0.00 86 1014.0
20260906012131 19 0 0.0 0.0 0.00 0.00 0.00 86 1013.9
20260906011631 19 0 0.0 0.0 0.00 0.00 0.00 86 1014.0
20260906011130 20 0 0.0 0.0 0.00 0.00 0.00 85 1014.0
20260906010630 20 0 0.0 0.0 0.00 0.00 0.00 85 1014.1
20260906010131 20 0 0.0 0.0 0.00 0.00 0.00 84 1014.2
20260906005632 20 0 0.0 0.0 0.00 0.00 0.00 84 1014.1
20260906005131 20 0 0.0 0.0 0.00 0.00 0.00 84 1014.1
20260906004631 20 0 0.0 0.0 0.00 0.00 0.00 84 1014.0
20260906004129 20 0 0.0 0.0 0.00 0.00 0.00 83 1014.0
20260906003624 20 0 0.0 0.0 0.00 0.00 0.00 83 1013.9
20260906003118 20 0 0.0 0.0 0.00 0.00 0.00 82 1013.9
20260906002613 20 0 0.0 0.0 0.00 0.00 0.00 82 1013.8
20260906002108 20 0 0.0 0.0 0.00 0.00 0.00 82 1013.9
20260906001609 20 0 0.0 0.0 0.00 0.00 0.00 82 1013.9
20260906001106 20 0 0.0 0.0 0.00 0.00 0.00 82 1013.9
20260906000606 20 0 0.0 0.0 0.00 0.00 0.00 81 1014.0
20260906000106 20 0 0.0 0.0 0.00 0.00 0.00 81 1013.9
20260905235607 20 0 0.0 0.0 0.00 0.00 0.00 81 1014.0
20260905235106 20 0 0.0 0.0 0.00 0.00 0.00 80 1013.9
20260905234605 20 0 0.0 0.0 0.00 0.00 0.00 80 1014.0
20260905234104 20 0 0.0 0.0 0.00 0.00 0.00 79 1014.0
20260905233605 21 0 0.0 0.0 0.00 0.00 0.00 79 1014.0
20260905233104 21 0 0.0 0.0 0.00 0.00 0.00 79 1013.9
20260905232603 21 0 0.0 0.0 0.00 0.00 0.00 78 1013.9
20260905232103 21 0 0.0 0.0 0.00 0.00 0.00 78 1013.9
20260905231602 21 0 0.0 0.0 0.00 0.00 0.00 77 1014.0
20260905231102 21 0 0.0 0.0 0.00 0.00 0.00 76 1014.0
20260905230602 21 0 0.0 0.0 0.00 0.00 0.00 75 1014.0
20260905230103 21 300 0.0 0.0 0.00 0.00 0.00 75 1014.0
20260905225558 21 0 0.0 0.0 0.00 0.00 0.00 75 1014.0
20260905225051 21 37 0.0 0.0 0.00 0.00 0.00 74 1014.1
20260905224555 21 40 0.0 0.0 0.00 0.00 0.00 74 1014.1
20260905224052 22 0 0.0 0.0 0.00 0.00 0.00 74 1014.0
20260905223550 22 302 0.0 0.0 0.00 0.00 0.00 72 1014.1
20260905223048 22 302 0.0 0.0 0.00 0.00 0.00 72 1014.1
20260905222547 22 302 0.0 0.0 0.00 0.00 0.00 72 1014.1
20260905222047 22 302 0.0 0.0 0.00 0.00 0.00 71 1013.9
20260905221545 22 302 0.0 0.0 0.00 0.00 0.00 71 1013.9
20260905221044 22 302 0.0 0.0 0.00 0.00 0.00 70 1013.9
20260905220542 22 302 0.0 0.0 0.00 0.00 0.00 70 1013.8
20260905220039 22 302 0.0 0.0 0.00 0.00 0.00 69 1013.7
20260905215537 22 302 0.0 0.0 0.00 0.00 0.00 69 1013.7
20260905215036 22 302 0.0 0.0 0.00 0.00 0.00 69 1013.8
20260905214533 22 302 0.0 0.0 0.00 0.00 0.00 69 1013.7
20260905214032 22 302 0.0 0.0 0.00 0.00 0.00 68 1013.6
20260905213531 23 302 0.0 0.0 0.00 0.00 0.00 68 1013.6